Regional Weather Roundup
Issued by NWS

Home | Current Version | Previous Version | Graphics & Text | Print | Product List | Glossary On
Versions: 1 2 3 4 5 6 7 8 9 10 11 12 13 14 15 16 17 18 19 20 21 22 23 24 25 26 27 28 29 30 31 32 33 34 35 36 37 38 39 40 41 42 43 44 45 46 47 48 49 50
000
ASUS45 KSLC 261310
RWRUT

UTAH REGIONAL WEATHER ROUNDUP
NATIONAL WEATHER SERVICE SALT LAKE CITY UT
700 AM MDT SUN APR 26 2015

UTZ001>011-023>025-261400-

NORTHERN UTAH

CITY           SKY/WX    TMP DP  RH WIND       PRES   REMARKS
BRIGHAM CITY   CLOUDY    41  35  77 NW9       29.87R
HILL AFB       CLOUDY    38  38  99 N12       29.86R WCI  31
LOGAN          LGT RAIN  39  36  89 NW9       29.85R WCI  33
OGDEN          CLOUDY    40  36  86 NW14      29.85R WCI  32
PROVO AIRPORT  MOCLDY    39  34  81 W21G32    29.84R WCI  29
SALT LAKE CITY LGT RAIN  40  35  83 NW20      29.87R WCI  30
VERNAL         CLOUDY    42  39  89 CALM      29.74R
WENDOVER       CLEAR     39  27  60 NW15      29.92R WCI  31
HEBER CITY     MIX PCPN  34  32  93 SE3       29.80R
WEST JORDAN    CLOUDY    36  36 100 NW13G20   29.88R WCI  27

$$

UTZ012>022-026-027-261400-

SOUTHERN/CENTRAL UTAH

CITY           SKY/WX    TMP DP  RH WIND       PRES   REMARKS
BLANDING       CLOUDY    38  38  97 CALM      29.84R
BRYCE CANYON   CLOUDY    31  29  92 NW14      29.81R WCI  21
CEDAR CITY     MIX PCPN  35  33  92 NE9       29.85R WCI  28
DELTA          CLOUDY    38  35  85 NW15G22   29.87R WCI  30
HANKSVILLE     CLOUDY    45  41  87 CALM      29.75R
MILFORD        CLOUDY    39  31  72 N9        29.86R WCI  33
MOAB/CYNLANDS  CLOUDY    46  43  89 NW5       29.71R
PRICE          CLOUDY    39  36  89 CALM      29.74R
ST GEORGE      PTSUNNY   46  39  76 SW7       29.83R
KANAB          CLOUDY    37  37 100 CALM      29.84R

$$

REGIONAL REPORTS     COLORADO/ARIZONA

CITY           SKY/WX    TMP DP  RH WIND       PRES   REMARKS
CRAIG, CO      CLEAR     35  32  88 CALM      29.76R
GRAND JUNCTION RAIN      42  41  96 NW8       29.74R FOG
RIFLE          MOCLDY    38  35  89 E6        29.74R WCI  33
MONTROSE       CLOUDY    41  38  89 S3        29.75R
CORTEZ           N/A     38  35  89 CALM      29.78R
PAGE, AZ       PTCLDY    45  39  79 CALM      29.75R
GRAND CANYON   LGT RAIN  34  34 100 NW3       29.81R
KINGMAN        CLEAR     37  35  92 S3        29.84R
FLAGSTAFF      CLOUDY    33  33 100 SW6       29.78R WCI  28

$$

REGIONAL REPORTS    NEVADA/IDAHO/WYOMING

CITY           SKY/WX    TMP DP  RH WIND       PRES   REMARKS
LAS VEGAS, NV  PTCLDY    57  29  34 W10G21    29.81R
ELY            CLEAR     32  26  78 NE6       29.95R WCI  26
ELKO           MOCLDY    34  24  67 SW3       30.01R
POCATELLO, ID  CLOUDY    35  30  82 SW21      29.91R WCI  24
BURLEY         PTCLDY    35  25  66 W17G25    29.92R WCI  25
EVANSTON, WY   SNOW      32  31  96 SW10      29.78R VSB 1/4 WCI  24
ROCK SPRINGS   MOCLDY    38  34  85 CALM      29.75R
KEMMERER       LGT RAIN  34  34 100 W6        29.75R WCI  29

$$



USA.gov is the U.S. government's official web portal to all federal, state and local government web resources and services.